When you browse on this site, cookies collect data to enhance your experience and personalize the content and advertising you see.
Visit our Privacy Policy to learn more. By continuing to use the site, you agree to this use of cookies and data.
  • In Österreich
  • Länderverzeichnis
  • Für 7 Tage
  • Wassertemperatur
  • Satellitenkarten
  • Wetterkarte
  • News
  • Widgets
  • user-avatar
    Anmelden

    Stündliche Wetter Tibissa

    Heute, 21 Februar, Donnerstag

    Zeit Temperatur Niederschläge Wind Luftdruck Luftfeuchtigkeit
    00:00 +8°C° 0 mm 1 m/S 688 mmHg 69%
    01:00 +8°C° 0 mm 1 m/S 689 mmHg 73%
    02:00 +7°C° 0 mm 1 m/S 689 mmHg 76%
    03:00 +7°C° 0 mm 1 m/S 689 mmHg 79%
    04:00 +6°C° 0 mm 1 m/S 689 mmHg 83%
    05:00 +6°C° 0 mm 1 m/S 689 mmHg 85%
    06:00 +6°C° 0 mm 1 m/S 689 mmHg 87%
    07:00 +5°C° 0 mm 1 m/S 689 mmHg 89%
    08:00 +7°C° 0 mm 1 m/S 690 mmHg 81%
    09:00 +8°C° 0 mm 2 m/S 690 mmHg 72%
    10:00 +9°C° 0 mm 2 m/S 691 mmHg 64%
    11:00 +10°C° 0 mm 3 m/S 691 mmHg 57%
    12:00 +11°C° 0 mm 3 m/S 691 mmHg 49%
    13:00 +12°C° 0 mm 3 m/S 692 mmHg 44%
    14:00 +12°C° 0 mm 3 m/S 691 mmHg 42%
    15:00 +13°C° 0 mm 3 m/S 691 mmHg 41%
    16:00 +13°C° 0 mm 3 m/S 691 mmHg 40%
    17:00 +12°C° 0 mm 3 m/S 691 mmHg 44%
    18:00 +11°C° 0 mm 3 m/S 691 mmHg 49%
    19:00 +10°C° 0 mm 2 m/S 691 mmHg 54%
    20:00 +9°C° 0 mm 2 m/S 691 mmHg 59%
    21:00 +9°C° 0 mm 1 m/S 691 mmHg 64%
    22:00 +9°C° 0 mm 1 m/S 692 mmHg 69%
    23:00 +8°C° 0 mm 1 m/S 692 mmHg 72%

    Morgen, 22 Februar, Freitag

    Zeit Temperatur Niederschläge Wind Luftdruck Luftfeuchtigkeit
    00:00 +8°C° 0 mm 1 m/S 691 mmHg 76%
    01:00 +7°C° 0 mm 1 m/S 691 mmHg 79%
    02:00 +7°C° 0 mm 1 m/S 691 mmHg 82%
    03:00 +7°C° 0 mm 1 m/S 691 mmHg 85%
    04:00 +5°C° 0 mm 2 m/S 691 mmHg 88%
    05:00 +5°C° 0 mm 2 m/S 691 mmHg 90%
    06:00 +5°C° 0 mm 2 m/S 691 mmHg 91%
    07:00 +5°C° 0 mm 3 m/S 691 mmHg 92%
    08:00 +5°C° 0 mm 3 m/S 691 mmHg 81%
    09:00 +7°C° 0 mm 3 m/S 691 mmHg 69%
    10:00 +7°C° 0 mm 4 m/S 691 mmHg 57%
    11:00 +10°C° 0 mm 4 m/S 691 mmHg 51%
    12:00 +10°C° 0 mm 5 m/S 691 mmHg 45%
    13:00 +11°C° 0 mm 6 m/S 691 mmHg 38%
    14:00 +11°C° 0 mm 6 m/S 691 mmHg 39%
    15:00 +11°C° 0 mm 6 m/S 690 mmHg 39%
    16:00 +11°C° 0 mm 6 m/S 689 mmHg 39%
    17:00 +10°C° 0 mm 6 m/S 689 mmHg 47%
    18:00 +9°C° 0 mm 6 m/S 689 mmHg 56%
    19:00 +8°C° 0 mm 5 m/S 689 mmHg 65%
    20:00 +7°C° 0 mm 5 m/S 689 mmHg 71%
    21:00 +6°C° 0 mm 4 m/S 689 mmHg 77%
    22:00 +5°C° 0 mm 3 m/S 689 mmHg 83%
    23:00 +5°C° 0 mm 3 m/S 689 mmHg 86%

    übermorgen, 23 Februar, Samstag

    Zeit Temperatur Niederschläge Wind Luftdruck Luftfeuchtigkeit
    00:00 +4°C° 0 mm 3 m/S 688 mmHg 89%
    01:00 +4°C° 0 mm 3 m/S 688 mmHg 92%
    02:00 +4°C° 0 mm 4 m/S 688 mmHg 90%
    03:00 +3°C° 0 mm 5 m/S 688 mmHg 89%
    04:00 +3°C° 0 mm 6 m/S 688 mmHg 88%
    05:00 +3°C° 0.1 mm 7 m/S 688 mmHg 89%
    06:00 +3°C° 0.1 mm 7 m/S 688 mmHg 90%
    07:00 +4°C° 0.1 mm 8 m/S 688 mmHg 91%
    08:00 +4°C° 0.1 mm 8 m/S 688 mmHg 85%
    09:00 +5°C° 0.1 mm 9 m/S 689 mmHg 80%
    10:00 +6°C° 0.1 mm 9 m/S 689 mmHg 74%
    11:00 +7°C° 0 mm 9 m/S 689 mmHg 68%
    12:00 +8°C° 0 mm 10 m/S 689 mmHg 61%
    13:00 +9°C° 0 mm 10 m/S 689 mmHg 54%
    14:00 +9°C° 0 mm 11 m/S 688 mmHg 54%
    15:00 +8°C° 0 mm 12 m/S 688 mmHg 54%
    16:00 +8°C° 0 mm 13 m/S 688 mmHg 54%
    17:00 +7°C° 0 mm 12 m/S 688 mmHg 57%
    18:00 +4°C° 0 mm 11 m/S 688 mmHg 61%
    19:00 +3°C° 0 mm 10 m/S 688 mmHg 64%
    20:00 +2°C° 0 mm 11 m/S 688 mmHg 69%
    21:00 +2°C° 0 mm 11 m/S 688 mmHg 74%
    22:00 +1°C° 0 mm 11 m/S 688 mmHg 78%
    23:00 0°C° 0 mm 12 m/S 688 mmHg 78%

    24 Februar, Sonntag

    Zeit Temperatur Niederschläge Wind Luftdruck Luftfeuchtigkeit
    00:00 +1°C° 0 mm 13 m/S 688 mmHg 78%
    01:00 +1°C° 0 mm 14 m/S 688 mmHg 77%
    02:00 0°C° 0 mm 13 m/S 687 mmHg 74%
    03:00 0°C° 0 mm 13 m/S 687 mmHg 70%
    04:00 -1°C° 0 mm 13 m/S 687 mmHg 66%
    05:00 -2°C° 0 mm 12 m/S 687 mmHg 71%
    06:00 -3°C° 0 mm 11 m/S 687 mmHg 76%
    07:00 -3°C° 0 mm 11 m/S 687 mmHg 81%
    08:00 -3°C° 0 mm 11 m/S 687 mmHg 78%
    09:00 -2°C° 0 mm 12 m/S 687 mmHg 74%
    10:00 -1°C° 0 mm 12 m/S 688 mmHg 71%
    11:00 -1°C° 0 mm 12 m/S 688 mmHg 69%
    12:00 0°C° 0 mm 12 m/S 688 mmHg 67%
    13:00 0°C° 0 mm 12 m/S 688 mmHg 64%
    14:00 0°C° 0 mm 12 m/S 688 mmHg 65%
    15:00 0°C° 0 mm 12 m/S 687 mmHg 65%
    16:00 0°C° 0 mm 12 m/S 687 mmHg 65%
    17:00 0°C° 0.1 mm 12 m/S 688 mmHg 69%
    18:00 -1°C° 0.1 mm 12 m/S 688 mmHg 72%
    19:00 -2°C° 0.1 mm 12 m/S 688 mmHg 76%
    20:00 -2°C° 0 mm 12 m/S 688 mmHg 78%
    21:00 -2°C° 0 mm 12 m/S 689 mmHg 79%
    22:00 -2°C° 0 mm 12 m/S 689 mmHg 81%
    23:00 -3°C° 0 mm 12 m/S 689 mmHg 81%

    25 Februar, Montag

    Zeit Temperatur Niederschläge Wind Luftdruck Luftfeuchtigkeit
    00:00 -3°C° 0 mm 11 m/S 689 mmHg 81%
    01:00 -3°C° 0 mm 11 m/S 688 mmHg 80%
    02:00 -3°C° 0 mm 10 m/S 688 mmHg 80%
    03:00 -3°C° 0 mm 10 m/S 688 mmHg 80%
    04:00 -3°C° 0 mm 9 m/S 687 mmHg 80%
    05:00 -3°C° 0 mm 9 m/S 687 mmHg 80%
    06:00 -3°C° 0 mm 9 m/S 687 mmHg 80%
    07:00 -3°C° 0 mm 9 m/S 687 mmHg 81%
    08:00 -1°C° 0 mm 9 m/S 688 mmHg 75%
    09:00 0°C° 0 mm 10 m/S 688 mmHg 70%
    10:00 +1°C° 0 mm 10 m/S 689 mmHg 64%
    11:00 +2°C° 0 mm 10 m/S 689 mmHg 61%
    12:00 +3°C° 0 mm 10 m/S 688 mmHg 57%
    13:00 +5°C° 0 mm 10 m/S 688 mmHg 54%
    14:00 +5°C° 0.4 mm 10 m/S 688 mmHg 60%
    15:00 +3°C° 0.4 mm 9 m/S 687 mmHg 67%
    16:00 +2°C° 0.4 mm 9 m/S 687 mmHg 74%
    17:00 +1°C° 0.4 mm 8 m/S 687 mmHg 76%
    18:00 0°C° 0.4 mm 8 m/S 687 mmHg 78%
    19:00 -1°C° 0.4 mm 7 m/S 687 mmHg 80%
    20:00 -1°C° 0 mm 5 m/S 687 mmHg 82%
    21:00 0°C° 0 mm 3 m/S 688 mmHg 84%
    22:00 +1°C° 0 mm 2 m/S 688 mmHg 86%
    23:00 +1°C° 0.5 mm 2 m/S 688 mmHg 89%

    26 Februar, Dienstag

    Zeit Temperatur Niederschläge Wind Luftdruck Luftfeuchtigkeit
    00:00 0°C° 0.5 mm 3 m/S 688 mmHg 91%
    01:00 -2°C° 0.5 mm 4 m/S 689 mmHg 94%
    02:00 -1°C° 0.6 mm 4 m/S 689 mmHg 94%
    03:00 0°C° 0.6 mm 3 m/S 689 mmHg 94%
    04:00 0°C° 0.6 mm 3 m/S 689 mmHg 94%
    05:00 -1°C° 0 mm 3 m/S 689 mmHg 94%
    06:00 -1°C° 0 mm 2 m/S 689 mmHg 95%
    07:00 -1°C° 0 mm 2 m/S 689 mmHg 95%
    08:00 -1°C° 0 mm 2 m/S 689 mmHg 94%
    09:00 +1°C° 0 mm 2 m/S 690 mmHg 93%
    10:00 +2°C° 0 mm 2 m/S 690 mmHg 92%
    11:00 +2°C° 0 mm 3 m/S 690 mmHg 90%
    12:00 +3°C° 0 mm 4 m/S 690 mmHg 88%
    13:00 +3°C° 0 mm 4 m/S 690 mmHg 85%
    14:00 +4°C° 0 mm 4 m/S 690 mmHg 84%
    15:00 +4°C° 0 mm 4 m/S 690 mmHg 82%
    16:00 +4°C° 0 mm 4 m/S 690 mmHg 81%
    17:00 +4°C° 0 mm 4 m/S 690 mmHg 83%
    18:00 +4°C° 0 mm 3 m/S 690 mmHg 85%
    19:00 +4°C° 0 mm 3 m/S 690 mmHg 86%
    20:00 +3°C° 0 mm 3 m/S 690 mmHg 89%
    21:00 +2°C° 0 mm 3 m/S 690 mmHg 91%
    22:00 +2°C° 0 mm 3 m/S 690 mmHg 94%
    23:00 +1°C° 0 mm 3 m/S 690 mmHg 94%
    Mehr zeigen